Weather History for Merrill, WI

Change the Weather History Date:

Sunday, September 15, 2013

  Actual Average Record
Temperature  
Mean Temperature 50 °F -  
Max Temperature 62 °F 65 °F 94 °F (1939)
Min Temperature 37 °F 44 °F 29 °F (1964)
Degree Days  
Heating Degree Days 16    
Moisture  
Dew Point 50 °F    
Average Humidity 89    
Maximum Humidity 100    
Minimum Humidity 74    
Precipitation  
Precipitation 0.11 in - - ()
Sea Level Pressure  
Sea Level Pressure 30.10 in    
Wind  
Wind Speed 3 mph (NE)    
Max Wind Speed 15 mph    
Max Gust Speed 22 mph    
Visibility 9 miles    
Events Rain    
Averages and records for this station are not official NWS values.
T = Trace of Precipitation, MM = Missing Value Source: NWS Daily Summary

Daily Weather History Graph

Daily Weather History Graph

Search for Another Location

Airport:

Trip Planner

Search our weather history database for the weather conditions in past years. The results will help you decide how hot, cold, wet, or windy it might be!

Date:

Astronomy

Sep. 15, 2013 Rise Set
Actual Time 6:37 AM CDT 7:09 PM CDT
Civil Twilight 6:08 AM CDT 7:38 PM CDT
Nautical Twilight 5:33 AM CDT 8:13 PM CDT
Astronomical Twilight 4:56 AM CDT 8:49 PM CDT
Moon 4:44 PM CDT (9/15) 2:06 AM CDT (9/15)
Length of Visible Light 13h 30m
Length of Day
12h 31m
Waxing Gibbous, 82% of the Moon is Illuminated
Sep 15
Waxing Gibbous
Sep 19
Full
Sep 26
Last Quarter
Oct 4
New
Oct 11
First Quarter

Hourly Weather History & Observations

Time (CDT) Temp. Windchill Dew Point Humidity Pressure Visibility Wind Dir Wind Speed Gust Speed Precip Events Conditions
12:15 AM 54.5 °F - 53.2 °F 96% 30.01 in 10.0 mi WSW 3.5 mph - N/A Rain Light Rain
12:35 AM 53.8 °F - 53.2 °F 98% 30.00 in 10.0 mi Calm Calm - N/A Rain Light Rain
12:55 AM 53.4 °F - 53.1 °F 99% 30.00 in 10.0 mi Calm Calm - N/A   Light Drizzle
1:15 AM 53.6 °F - 53.2 °F 99% 29.99 in 10.0 mi Calm Calm - N/A   Overcast
1:35 AM 53.6 °F - 53.2 °F 99% 30.00 in 10.0 mi Calm Calm - N/A   Overcast
1:55 AM 53.8 °F - 53.6 °F 99% 30.00 in 10.0 mi Calm Calm - N/A   Overcast
2:15 AM 53.6 °F - 53.4 °F 99% 30.00 in 10.0 mi Calm Calm - N/A   Overcast
2:35 AM 53.8 °F - 53.8 °F 100% 29.99 in 7.0 mi Calm Calm - N/A   Light Drizzle
2:55 AM 53.8 °F - 53.8 °F 100% 29.99 in 10.0 mi SSE 3.5 mph - N/A   Overcast
3:15 AM 53.8 °F - 53.6 °F 99% 29.99 in 7.0 mi Calm Calm - N/A   Overcast
3:35 AM 53.8 °F - 53.4 °F 99% 29.99 in 10.0 mi SSE 3.5 mph - N/A   Overcast
3:55 AM 53.6 °F - 52.7 °F 97% 29.98 in 10.0 mi South 4.6 mph - N/A   Overcast
4:15 AM 53.6 °F - 52.7 °F 97% 29.98 in 10.0 mi Calm Calm - N/A Rain Rain
4:35 AM 53.2 °F - 52.7 °F 98% 29.98 in 10.0 mi SSE 3.5 mph - N/A   Drizzle
4:55 AM 53.2 °F - 52.7 °F 98% 29.98 in 10.0 mi Calm Calm - N/A   Light Drizzle
5:15 AM 53.2 °F - 52.7 °F 98% 29.98 in 7.0 mi Calm Calm - N/A   Drizzle
5:35 AM 53.1 °F - 52.7 °F 99% 29.98 in 4.0 mi Calm Calm - N/A Rain Rain
5:55 AM 52.9 °F - 52.3 °F 98% 30.00 in 5.0 mi Calm Calm - N/A Rain Light Rain
6:15 AM 52.7 °F - 52.2 °F 98% 30.00 in 2.5 mi Calm Calm - 0.03 in Rain Rain
6:35 AM 52.7 °F - 52.2 °F 98% 29.99 in 5.0 mi Calm Calm - 0.05 in Rain Rain
6:55 AM 52.7 °F - 52.2 °F 98% 30.00 in 10.0 mi Calm Calm - 0.06 in Rain Light Rain
7:15 AM 52.7 °F - 52.7 °F 100% 30.00 in 7.0 mi Calm Calm - 0.02 in Rain Light Rain
7:35 AM 52.9 °F - 52.7 °F 99% 29.99 in 7.0 mi Calm Calm - 0.02 in Rain Rain
7:55 AM 52.7 °F - 52.5 °F 99% 30.00 in 7.0 mi Calm Calm - 0.04 in Rain Rain
8:15 AM 52.9 °F - 52.7 °F 99% 30.01 in 10.0 mi Calm Calm - 0.01 in Rain Light Rain
8:35 AM 53.1 °F - 52.7 °F 99% 30.00 in 10.0 mi ESE 3.5 mph - 0.01 in Rain Rain
8:55 AM 53.4 °F - 52.7 °F 97% 30.01 in 10.0 mi Calm Calm - 0.01 in   Light Drizzle
9:15 AM 53.6 °F - 52.7 °F 97% 30.02 in 10.0 mi Calm Calm - N/A   Overcast
9:35 AM 54.0 °F - 52.7 °F 95% 30.03 in 10.0 mi Calm Calm - N/A   Overcast
9:55 AM 54.1 °F - 52.7 °F 95% 30.04 in 10.0 mi NE 3.5 mph - N/A   Overcast
10:15 AM 55.4 °F - 53.1 °F 92% 30.04 in 10.0 mi Calm Calm - N/A   Overcast
10:35 AM 56.7 °F - 53.6 °F 89% 30.04 in 10.0 mi Calm Calm - N/A   Overcast
10:55 AM 56.7 °F - 52.3 °F 85% 30.05 in 10.0 mi Calm Calm - N/A   Overcast
11:15 AM 56.5 °F - 53.2 °F 89% 30.06 in 10.0 mi NE 3.5 mph - N/A   Overcast
11:35 AM 58.1 °F - 53.6 °F 85% 30.06 in 10.0 mi North 3.5 mph - N/A   Overcast
11:55 AM 58.3 °F - 53.6 °F 84% 30.07 in 10.0 mi NE 4.6 mph - N/A   Overcast
12:15 PM 58.8 °F - 54.0 °F 84% 30.07 in 10.0 mi Calm Calm - N/A   Overcast
12:35 PM 61.3 °F - 54.5 °F 78% 30.06 in 10.0 mi ENE 5.8 mph - N/A   Overcast
12:55 PM 61.7 °F - 54.1 °F 76% 30.07 in 10.0 mi NNE 9.2 mph - N/A   Overcast
1:15 PM 62.2 °F - 54.3 °F 75% 30.07 in 10.0 mi NE 6.9 mph - N/A   Overcast
1:35 PM 60.3 °F - 53.2 °F 78% 30.08 in 10.0 mi NNE 10.4 mph - N/A   Overcast
1:55 PM 60.4 °F - 54.3 °F 80% 30.08 in 10.0 mi NE 9.2 mph - N/A   Overcast
2:15 PM 59.9 °F - 53.8 °F 80% 30.09 in 10.0 mi North 10.4 mph - N/A   Overcast
2:35 PM 57.2 °F - 54.9 °F 92% 30.10 in 7.0 mi North 9.2 mph - N/A Rain Light Rain
2:55 PM 57.7 °F - 55.6 °F 92% 30.10 in 10.0 mi NNE 10.4 mph - N/A   Overcast
3:15 PM 57.6 °F - 54.5 °F 90% 30.10 in 10.0 mi North 10.4 mph 16.1 mph N/A   Overcast
3:35 PM 58.1 °F - 53.6 °F 85% 30.11 in 10.0 mi NNE 8.1 mph - N/A   Overcast
3:55 PM 58.1 °F - 52.5 °F 82% 30.12 in 10.0 mi North 8.1 mph 13.8 mph N/A   Overcast
4:15 PM 57.7 °F - 51.8 °F 81% 30.13 in 10.0 mi NNE 9.2 mph - N/A   Overcast
4:35 PM 57.4 °F - 50.9 °F 79% 30.14 in 10.0 mi NNE 10.4 mph 16.1 mph N/A   Overcast
4:55 PM 56.3 °F - 49.8 °F 79% 30.15 in 10.0 mi NE 15.0 mph 19.6 mph N/A   Overcast
5:15 PM 55.2 °F - 49.1 °F 80% 30.18 in 10.0 mi NE 11.5 mph 21.9 mph N/A   Overcast
5:35 PM 54.5 °F - 49.1 °F 82% 30.19 in 10.0 mi NE 9.2 mph - N/A   Overcast
5:55 PM 54.3 °F - 47.8 °F 79% 30.20 in 10.0 mi NNE 12.7 mph 16.1 mph N/A   Overcast
6:15 PM 53.6 °F - 47.5 °F 80% 30.21 in 10.0 mi NE 9.2 mph - N/A   Overcast
6:35 PM 53.2 °F - 46.9 °F 79% 30.21 in 10.0 mi NNE 8.1 mph 16.1 mph N/A   Overcast
6:55 PM 52.7 °F - 46.4 °F 79% 30.22 in 10.0 mi NNE 9.2 mph - N/A   Overcast
7:15 PM 52.2 °F - 44.6 °F 75% 30.23 in 10.0 mi NNE 5.8 mph - N/A   Overcast
7:35 PM 51.4 °F - 44.2 °F 76% 30.24 in 10.0 mi NE 10.4 mph - N/A   Overcast
7:55 PM 50.7 °F - 42.8 °F 74% 30.25 in 10.0 mi NNE 11.5 mph - N/A   Overcast
8:15 PM 50.4 °F - 42.6 °F 75% 30.25 in 10.0 mi NE 12.7 mph 18.4 mph N/A   Overcast
8:35 PM 49.1 °F - 41.9 °F 76% 30.26 in 10.0 mi North 10.4 mph - N/A   Overcast
8:55 PM 48.2 °F - 41.7 °F 78% 30.27 in 10.0 mi NNE 5.8 mph - N/A   Overcast
9:15 PM 47.5 °F - 40.8 °F 78% 30.28 in 10.0 mi NNE 6.9 mph - N/A   Overcast
9:35 PM 45.7 °F 41.5 °F 40.1 °F 81% 30.28 in 10.0 mi NNE 8.1 mph - N/A   Mostly Cloudy
9:55 PM 44.4 °F 41.2 °F 39.4 °F 82% 30.28 in 10.0 mi NNE 5.8 mph - N/A   Scattered Clouds
10:15 PM 43.3 °F 40.7 °F 39.2 °F 85% 30.29 in 10.0 mi NE 4.6 mph - N/A   Clear
10:35 PM 42.3 °F 40.5 °F 38.7 °F 87% 30.30 in 10.0 mi NNE 3.5 mph - N/A   Clear
10:55 PM 40.3 °F - 38.3 °F 93% 30.30 in 10.0 mi Calm Calm - N/A   Clear
11:15 PM 40.1 °F - 38.8 °F 95% 30.30 in 10.0 mi Calm Calm - N/A   Clear
11:35 PM 37.9 °F - 37.4 °F 98% 30.31 in 10.0 mi Calm Calm - N/A   Clear
11:55 PM 37.6 °F - 37.0 °F 98% 30.32 in 10.0 mi Calm Calm - N/A   Clear